Weather History for Glens Falls, NY

Change the Weather History Date:

Monday, December 31, 2012

  Actual Average Record
Temperature  
Mean Temperature 21 °F 20 °F  
Max Temperature 31 °F 29 °F 53 °F (1965)
Min Temperature 10 °F 10 °F -18 °F (1963)
Degree Days  
Heating Degree Days 44 45  
Month to date heating degree days 1068 1239  
Since 1 July heating degree days 2591 2938  
Cooling Degree Days 0 0  
Month to date cooling degree days 0 0  
Year to date cooling degree days 533 352  
Moisture  
Dew Point 17 °F    
Average Humidity 78    
Maximum Humidity 92    
Minimum Humidity 63    
Precipitation  
Precipitation 0.00 in 0.09 in 0.87 in (1972)
Month to date precipitation 3.39 3.05  
Year to date precipitation 34.76 39.06  
Sea Level Pressure  
Sea Level Pressure 29.97 in    
Wind  
Wind Speed 5 mph (SSW)    
Max Wind Speed 13 mph    
Max Gust Speed 18 mph    
Visibility 9 miles    
Events      
T = Trace of Precipitation, MM = Missing Value Source: NWS Daily Summary

Daily Weather History Graph

Daily Weather History Graph

Search for Another Location

Airport:

Trip Planner

Search our weather history database for the weather conditions in past years. The results will help you decide how hot, cold, wet, or windy it might be!

Date:

Astronomy

Dec. 31, 2012 Rise Set
Actual Time 7:26 AM EST 4:28 PM EST
Civil Twilight 6:54 AM EST 5:01 PM EST
Nautical Twilight 6:18 AM EST 5:37 PM EST
Astronomical Twilight 5:43 AM EST 6:11 PM EST
Moon 8:02 PM EST (12/31) 9:01 AM EST (12/31)
Length of Visible Light 10h 06m
Length of Day
9h 01m
Waning Gibbous, 90% of the Moon is Illuminated
Dec 31
Waning Gibbous
Jan 4
Last Quarter
Jan 11
New
Jan 18
First Quarter
Jan 26
Full

Hourly Weather History & Observations

Time (EST) Temp. Windchill Dew Point Humidity Pressure Visibility Wind Dir Wind Speed Gust Speed Precip Events Conditions
12:53 AM 12.0 °F - 7.0 °F 80% 30.15 in 10.0 mi Calm Calm - N/A   Overcast
1:53 AM 12.0 °F - 8.1 °F 84% 30.15 in 10.0 mi Calm Calm - N/A   Overcast
2:53 AM 14.0 °F - 9.0 °F 80% 30.14 in 10.0 mi Calm Calm - N/A   Overcast
3:53 AM 14.0 °F - 9.0 °F 80% 30.11 in 10.0 mi Calm Calm - N/A   Overcast
4:53 AM 15.1 °F - 10.0 °F 80% 30.10 in 10.0 mi Calm Calm - N/A   Overcast
5:53 AM 16.0 °F - 10.0 °F 77% 30.09 in 10.0 mi Calm Calm - N/A   Overcast
6:53 AM 16.0 °F - 10.9 °F 81% 30.08 in 10.0 mi Calm Calm - N/A   Overcast
7:53 AM 17.1 °F - 10.9 °F 77% 30.08 in 10.0 mi Calm Calm - N/A   Overcast
8:07 AM 17.6 °F - 12.2 °F 79% 30.04 in 10.0 mi Calm Calm - N/A   Overcast
8:53 AM 18.0 °F - 12.9 °F 81% 30.06 in 7.0 mi Calm Calm - N/A   Overcast
9:53 AM 21.9 °F 15.7 °F 19.0 °F 89% 30.07 in 4.0 mi South 4.6 mph - N/A   Overcast
10:53 AM 23.0 °F 17.0 °F 19.9 °F 88% 30.04 in 6.0 mi South 4.6 mph - N/A   Overcast
11:53 AM 25.0 °F 16.3 °F 21.0 °F 85% 30.01 in 7.0 mi South 8.1 mph - N/A   Overcast
12:53 PM 26.1 °F 17.6 °F 21.0 °F 81% 29.97 in 8.0 mi South 8.1 mph - N/A   Overcast
1:53 PM 28.0 °F 20.0 °F 21.9 °F 78% 29.95 in 8.0 mi South 8.1 mph - N/A   Overcast
2:53 PM 30.0 °F 21.7 °F 21.9 °F 72% 29.93 in 8.0 mi SSW 9.2 mph - N/A   Mostly Cloudy
3:43 PM 30.2 °F 22.6 °F 21.2 °F 69% 29.88 in 10.0 mi SW 8.1 mph - N/A   Overcast
3:53 PM 30.9 °F 24.3 °F 21.9 °F 69% 29.92 in 10.0 mi SW 6.9 mph - N/A   Mostly Cloudy
4:53 PM 27.0 °F 20.5 °F 19.9 °F 75% 29.88 in 10.0 mi South 5.8 mph - N/A   Scattered Clouds
5:53 PM 28.9 °F 21.1 °F 19.9 °F 69% 29.88 in 10.0 mi SSW 8.1 mph - N/A   Mostly Cloudy
6:53 PM 30.0 °F 21.7 °F 19.9 °F 66% 29.86 in 10.0 mi SSW 9.2 mph - N/A   Overcast
7:53 PM 28.0 °F 24.2 °F 19.9 °F 72% 29.85 in 10.0 mi South 3.5 mph - N/A   Overcast
8:53 PM 30.0 °F 21.7 °F 19.9 °F 66% 29.83 in 10.0 mi SSW 9.2 mph - N/A   Overcast
9:53 PM 30.0 °F 21.1 °F 19.9 °F 66% 29.80 in 6.0 mi South 10.4 mph - N/A   Haze
10:25 PM 30.2 °F 20.8 °F 19.4 °F 64% 29.76 in 8.0 mi South 11.5 mph - N/A   Overcast
10:53 PM 30.2 °F 22.6 °F 21.2 °F 69% 29.76 in 9.0 mi South 8.1 mph - N/A   Overcast
11:53 PM 30.0 °F 24.1 °F 23.0 °F 75% 29.77 in 7.0 mi South 5.8 mph - N/A   Overcast